Year,Month,Day,Hour,Minute,Value (Times are PST for temperature in C)
2017,06,25,00,00,18.10
2017,06,25,00,01,18.10
2017,06,25,00,02,18.10
2017,06,25,00,03,18.10
2017,06,25,00,04,18.10
2017,06,25,00,05,18.10
2017,06,25,00,06,18.10
2017,06,25,00,07,18.10
2017,06,25,00,08,18.00
2017,06,25,00,09,18.00
2017,06,25,00,10,18.00
2017,06,25,00,11,17.90
2017,06,25,00,12,17.90
2017,06,25,00,13,17.90
2017,06,25,00,14,17.90
2017,06,25,00,15,17.90
2017,06,25,00,16,17.90
2017,06,25,00,17,17.90
2017,06,25,00,18,17.90
2017,06,25,00,19,17.80
2017,06,25,00,20,17.80
2017,06,25,00,21,17.80
2017,06,25,00,22,17.80
2017,06,25,00,23,17.80
2017,06,25,00,24,17.80
2017,06,25,00,25,17.70
2017,06,25,00,26,17.70
2017,06,25,00,27,17.70
2017,06,25,00,28,17.70
2017,06,25,00,29,17.70
2017,06,25,00,30,17.70
2017,06,25,00,31,17.70
2017,06,25,00,32,17.70
2017,06,25,00,33,17.70
2017,06,25,00,34,17.70
2017,06,25,00,35,17.80
2017,06,25,00,36,17.80
2017,06,25,00,37,17.80
2017,06,25,00,38,17.80
2017,06,25,00,39,17.70
2017,06,25,00,40,17.70
2017,06,25,00,41,17.70
2017,06,25,00,42,17.70
2017,06,25,00,43,17.70
2017,06,25,00,44,17.70
2017,06,25,00,45,17.70
2017,06,25,00,46,17.60
2017,06,25,00,47,17.60
2017,06,25,00,48,17.60
2017,06,25,00,49,17.60
2017,06,25,00,50,17.50
2017,06,25,00,51,17.50
2017,06,25,00,52,17.50
2017,06,25,00,53,17.40
2017,06,25,00,54,17.40
2017,06,25,00,55,17.40
2017,06,25,00,56,17.40
2017,06,25,00,57,17.40
2017,06,25,00,58,17.40
2017,06,25,00,59,17.40
2017,06,25,01,00,17.30
2017,06,25,01,01,17.30
2017,06,25,01,02,17.30
2017,06,25,01,03,17.30
2017,06,25,01,04,17.30
2017,06,25,01,05,17.30
2017,06,25,01,06,17.30
2017,06,25,01,07,17.20
2017,06,25,01,08,17.20
2017,06,25,01,09,17.20
2017,06,25,01,10,17.20
2017,06,25,01,11,17.20
2017,06,25,01,12,17.20
2017,06,25,01,13,17.20
2017,06,25,01,14,17.20
2017,06,25,01,15,17.20
2017,06,25,01,16,17.10
2017,06,25,01,17,17.10
2017,06,25,01,18,17.10
2017,06,25,01,19,17.10
2017,06,25,01,20,17.10
2017,06,25,01,21,17.10
2017,06,25,01,22,17.10
2017,06,25,01,23,17.10
2017,06,25,01,24,17.00
2017,06,25,01,25,17.00
2017,06,25,01,26,17.00
2017,06,25,01,27,17.00
2017,06,25,01,28,17.00
2017,06,25,01,29,17.00
2017,06,25,01,30,16.90
2017,06,25,01,31,16.90
2017,06,25,01,32,16.90
2017,06,25,01,33,16.90
2017,06,25,01,34,16.90
2017,06,25,01,35,16.90
2017,06,25,01,36,16.80
2017,06,25,01,37,16.80
2017,06,25,01,38,16.80
2017,06,25,01,39,16.80
2017,06,25,01,40,16.80
2017,06,25,01,41,16.80
2017,06,25,01,42,16.80
2017,06,25,01,43,16.80
2017,06,25,01,44,16.80
2017,06,25,01,45,16.80
2017,06,25,01,46,16.70
2017,06,25,01,47,16.70
2017,06,25,01,48,16.70
2017,06,25,01,49,16.70
2017,06,25,01,50,16.70
2017,06,25,01,51,16.70
2017,06,25,01,52,16.70
2017,06,25,01,53,16.70
2017,06,25,01,54,16.60
2017,06,25,01,55,16.60
2017,06,25,01,56,16.60
2017,06,25,01,57,16.60
2017,06,25,01,58,16.60
2017,06,25,01,59,16.60
2017,06,25,02,00,16.50
2017,06,25,02,01,16.50
2017,06,25,02,02,16.50
2017,06,25,02,03,16.50
2017,06,25,02,04,16.50
2017,06,25,02,05,16.50
2017,06,25,02,06,16.50
2017,06,25,02,07,16.40
2017,06,25,02,08,16.40
2017,06,25,02,09,16.40
2017,06,25,02,10,16.40
2017,06,25,02,11,16.40
2017,06,25,02,12,16.40
2017,06,25,02,13,16.40
2017,06,25,02,14,16.40
2017,06,25,02,15,16.30
2017,06,25,02,16,16.30
2017,06,25,02,17,16.30
2017,06,25,02,18,16.30
2017,06,25,02,19,16.30
2017,06,25,02,20,16.30
2017,06,25,02,21,16.30
2017,06,25,02,22,16.20
2017,06,25,02,23,16.20
2017,06,25,02,24,16.20
2017,06,25,02,25,16.20
2017,06,25,02,26,16.20
2017,06,25,02,27,16.20
2017,06,25,02,28,16.20
2017,06,25,02,29,16.20
2017,06,25,02,30,16.20
2017,06,25,02,31,16.10
2017,06,25,02,32,16.10
2017,06,25,02,33,16.10
2017,06,25,02,34,16.10
2017,06,25,02,35,16.10
2017,06,25,02,36,16.10
2017,06,25,02,37,16.10
2017,06,25,02,38,16.10
2017,06,25,02,39,16.10
2017,06,25,02,40,16.10
2017,06,25,02,41,16.00
2017,06,25,02,42,16.10
2017,06,25,02,43,16.00
2017,06,25,02,44,16.00
2017,06,25,02,45,16.00
2017,06,25,02,46,16.00
2017,06,25,02,47,16.00
2017,06,25,02,48,16.00
2017,06,25,02,49,16.00
2017,06,25,02,50,16.00
2017,06,25,02,51,16.00
2017,06,25,02,52,16.00
2017,06,25,02,53,16.00
2017,06,25,02,54,16.00
2017,06,25,02,55,16.00
2017,06,25,02,56,16.00
2017,06,25,02,57,16.00
2017,06,25,02,58,16.00
2017,06,25,02,59,16.00
2017,06,25,03,00,16.00
2017,06,25,03,01,16.00
2017,06,25,03,02,16.00
2017,06,25,03,03,15.90
2017,06,25,03,04,15.90
2017,06,25,03,05,15.90
2017,06,25,03,06,15.90
2017,06,25,03,07,15.90
2017,06,25,03,08,15.90
2017,06,25,03,09,15.90
2017,06,25,03,10,15.90
2017,06,25,03,11,15.90
2017,06,25,03,12,15.90
2017,06,25,03,13,15.90
2017,06,25,03,14,15.90
2017,06,25,03,15,15.90
2017,06,25,03,16,15.90
2017,06,25,03,17,15.90
2017,06,25,03,18,16.00
2017,06,25,03,19,16.00
2017,06,25,03,20,16.00
2017,06,25,03,21,16.00
2017,06,25,03,22,16.00
2017,06,25,03,23,16.00
2017,06,25,03,24,16.10
2017,06,25,03,25,16.10
2017,06,25,03,26,16.10
2017,06,25,03,27,16.10
2017,06,25,03,28,16.10
2017,06,25,03,29,16.10
2017,06,25,03,30,16.10
2017,06,25,03,31,16.10
2017,06,25,03,32,16.00
2017,06,25,03,33,16.00
2017,06,25,03,34,16.00
2017,06,25,03,35,15.90
2017,06,25,03,36,15.90
2017,06,25,03,37,15.90
2017,06,25,03,38,15.90
2017,06,25,03,39,15.90
2017,06,25,03,40,15.90
2017,06,25,03,41,16.00
2017,06,25,03,42,16.00
2017,06,25,03,43,16.00
2017,06,25,03,44,16.00
2017,06,25,03,45,16.00
2017,06,25,03,46,16.00
2017,06,25,03,47,16.10
2017,06,25,03,48,16.10
2017,06,25,03,49,16.10
2017,06,25,03,50,16.10
2017,06,25,03,51,16.10
2017,06,25,03,52,16.10
2017,06,25,03,53,16.00
2017,06,25,03,54,16.00
2017,06,25,03,55,15.90
2017,06,25,03,56,15.90
2017,06,25,03,57,15.90
2017,06,25,03,58,15.90
2017,06,25,03,59,15.90
2017,06,25,04,00,15.90
2017,06,25,04,01,15.90
2017,06,25,04,02,15.90
2017,06,25,04,03,15.90
2017,06,25,04,04,15.90
2017,06,25,04,05,15.80
2017,06,25,04,06,15.80
2017,06,25,04,07,15.80
2017,06,25,04,08,15.80
2017,06,25,04,09,15.70
2017,06,25,04,10,15.70
2017,06,25,04,11,15.70
2017,06,25,04,12,15.70
2017,06,25,04,13,15.70
2017,06,25,04,14,15.60
2017,06,25,04,15,15.60
2017,06,25,04,16,15.60
2017,06,25,04,17,15.60
2017,06,25,04,18,15.60
2017,06,25,04,19,15.60
2017,06,25,04,20,15.60
2017,06,25,04,21,15.60
2017,06,25,04,22,15.60
2017,06,25,04,23,15.70
2017,06,25,04,24,15.70
2017,06,25,04,25,15.70
2017,06,25,04,26,15.80
2017,06,25,04,27,15.80
2017,06,25,04,28,15.80
2017,06,25,04,29,15.80
2017,06,25,04,30,15.80
2017,06,25,04,31,15.80
2017,06,25,04,32,15.80
2017,06,25,04,33,15.80
2017,06,25,04,34,15.80
2017,06,25,04,35,15.80
2017,06,25,04,36,15.70
2017,06,25,04,37,15.70
2017,06,25,04,38,15.70
2017,06,25,04,39,15.70
2017,06,25,04,40,15.70
2017,06,25,04,41,15.70
2017,06,25,04,42,15.60
2017,06,25,04,43,15.60
2017,06,25,04,44,15.60
2017,06,25,04,45,15.60
2017,06,25,04,46,15.60
2017,06,25,04,47,15.50
2017,06,25,04,48,15.50
2017,06,25,04,49,15.50
2017,06,25,04,50,15.50
2017,06,25,04,51,15.50
2017,06,25,04,52,15.50
2017,06,25,04,53,15.50
2017,06,25,04,54,15.50
2017,06,25,04,55,15.50
2017,06,25,04,56,15.60
2017,06,25,04,57,15.60
2017,06,25,04,58,15.60
2017,06,25,04,59,15.70
2017,06,25,05,00,15.70
2017,06,25,05,01,15.80
2017,06,25,05,02,15.80
2017,06,25,05,03,15.80
2017,06,25,05,04,15.80
2017,06,25,05,05,15.80
2017,06,25,05,06,15.80
2017,06,25,05,07,15.70
2017,06,25,05,08,15.70
2017,06,25,05,09,15.70
2017,06,25,05,10,15.70
2017,06,25,05,11,15.80
2017,06,25,05,12,15.90
2017,06,25,05,13,16.00
2017,06,25,05,14,16.10
2017,06,25,05,15,16.10
2017,06,25,05,16,16.20
2017,06,25,05,17,16.30
2017,06,25,05,18,16.30
2017,06,25,05,19,16.30
2017,06,25,05,20,16.40
2017,06,25,05,21,16.40
2017,06,25,05,22,16.40
2017,06,25,05,23,16.40
2017,06,25,05,24,16.40
2017,06,25,05,25,16.40
2017,06,25,05,26,16.40
2017,06,25,05,27,16.40
2017,06,25,05,28,16.30
2017,06,25,05,29,16.30
2017,06,25,05,30,16.30
2017,06,25,05,31,16.40
2017,06,25,05,32,16.40
2017,06,25,05,33,16.40
2017,06,25,05,34,16.40
2017,06,25,05,35,16.40
2017,06,25,05,36,16.50
2017,06,25,05,37,16.50
2017,06,25,05,38,16.60
2017,06,25,05,39,16.60
2017,06,25,05,40,16.60
2017,06,25,05,41,16.60
2017,06,25,05,42,16.70
2017,06,25,05,43,16.70
2017,06,25,05,44,16.80
2017,06,25,05,45,16.80
2017,06,25,05,46,16.90
2017,06,25,05,47,16.90
2017,06,25,05,48,17.00
2017,06,25,05,49,17.00
2017,06,25,05,50,17.10
2017,06,25,05,51,17.10
2017,06,25,05,52,17.10
2017,06,25,05,53,17.20
2017,06,25,05,54,17.20
2017,06,25,05,55,17.20
2017,06,25,05,56,17.30
2017,06,25,05,57,17.30
2017,06,25,05,58,17.30
2017,06,25,05,59,17.30
2017,06,25,06,00,17.40
2017,06,25,06,01,17.40
2017,06,25,06,02,17.40
2017,06,25,06,03,17.50
2017,06,25,06,04,17.50
2017,06,25,06,05,17.60
2017,06,25,06,06,17.60
2017,06,25,06,07,17.70
2017,06,25,06,08,17.70
2017,06,25,06,09,17.80
2017,06,25,06,10,17.80
2017,06,25,06,11,17.90
2017,06,25,06,12,17.90
2017,06,25,06,13,18.00
2017,06,25,06,14,18.10
2017,06,25,06,15,18.20
2017,06,25,06,16,18.20
2017,06,25,06,17,18.30
2017,06,25,06,18,18.40
2017,06,25,06,19,18.50
2017,06,25,06,20,18.60
2017,06,25,06,21,18.70
2017,06,25,06,22,18.70
2017,06,25,06,23,18.80
2017,06,25,06,24,18.90
2017,06,25,06,25,18.90
2017,06,25,06,26,19.00
2017,06,25,06,27,19.10
2017,06,25,06,28,19.20
2017,06,25,06,29,19.30
2017,06,25,06,30,19.40
2017,06,25,06,31,19.50
2017,06,25,06,32,19.60
2017,06,25,06,33,19.70
2017,06,25,06,34,19.80
2017,06,25,06,35,19.90
2017,06,25,06,36,20.00
2017,06,25,06,37,20.10
2017,06,25,06,38,20.20
2017,06,25,06,39,20.30
2017,06,25,06,40,20.30
2017,06,25,06,41,20.40
2017,06,25,06,42,20.40
2017,06,25,06,43,20.50
2017,06,25,06,44,20.60
2017,06,25,06,45,20.60
2017,06,25,06,46,20.60
2017,06,25,06,47,20.60
2017,06,25,06,48,20.60
2017,06,25,06,49,20.60
2017,06,25,06,50,20.60
2017,06,25,06,51,20.50
2017,06,25,06,52,20.50
2017,06,25,06,53,20.50
2017,06,25,06,54,20.50
2017,06,25,06,55,20.40
2017,06,25,06,56,20.30
2017,06,25,06,57,20.30
2017,06,25,06,58,20.20
2017,06,25,06,59,20.10
2017,06,25,07,00,20.00
2017,06,25,07,01,19.90
2017,06,25,07,02,19.90
2017,06,25,07,03,19.80
2017,06,25,07,04,19.80
2017,06,25,07,05,19.80
2017,06,25,07,06,19.80
2017,06,25,07,07,19.80
2017,06,25,07,08,19.80
2017,06,25,07,09,19.80
2017,06,25,07,10,19.80
2017,06,25,07,11,19.90
2017,06,25,07,12,19.90
2017,06,25,07,13,20.00
2017,06,25,07,14,20.00
2017,06,25,07,15,20.10
2017,06,25,07,16,20.10
2017,06,25,07,17,20.20
2017,06,25,07,18,20.20
2017,06,25,07,19,20.30
2017,06,25,07,20,20.30
2017,06,25,07,21,20.40
2017,06,25,07,22,20.40
2017,06,25,07,23,20.40
2017,06,25,07,24,20.40
2017,06,25,07,25,20.40
2017,06,25,07,26,20.40
2017,06,25,07,27,20.40
2017,06,25,07,28,20.40
2017,06,25,07,29,20.40
2017,06,25,07,30,20.50
2017,06,25,07,31,20.50
2017,06,25,07,32,20.50
2017,06,25,07,33,20.50
2017,06,25,07,34,20.50
2017,06,25,07,35,20.50
2017,06,25,07,36,20.50
2017,06,25,07,37,20.50
2017,06,25,07,38,20.40
2017,06,25,07,39,20.40
2017,06,25,07,40,20.40
2017,06,25,07,41,20.40
2017,06,25,07,42,20.40
2017,06,25,07,43,20.40
2017,06,25,07,44,20.40
2017,06,25,07,45,20.40
2017,06,25,07,46,20.40
2017,06,25,07,47,20.40
2017,06,25,07,48,20.40
2017,06,25,07,49,20.30
2017,06,25,07,50,20.30
2017,06,25,07,51,20.30
2017,06,25,07,52,20.30
2017,06,25,07,53,20.40
2017,06,25,07,54,20.40
2017,06,25,07,55,20.50
2017,06,25,07,56,20.50
2017,06,25,07,57,20.60
2017,06,25,07,58,20.60
2017,06,25,07,59,20.60
2017,06,25,08,00,20.60
2017,06,25,08,01,20.60
2017,06,25,08,02,20.60
2017,06,25,08,03,20.60
2017,06,25,08,04,20.70
2017,06,25,08,05,20.70
2017,06,25,08,06,20.80
2017,06,25,08,07,20.90
2017,06,25,08,08,20.90
2017,06,25,08,09,21.00
2017,06,25,08,10,21.10
2017,06,25,08,11,21.20
2017,06,25,08,12,21.20
2017,06,25,08,13,21.30
2017,06,25,08,14,21.30
2017,06,25,08,15,21.30
2017,06,25,08,16,21.40
2017,06,25,08,17,21.40
2017,06,25,08,18,21.50
2017,06,25,08,19,21.60
2017,06,25,08,20,21.60
2017,06,25,08,21,21.60
2017,06,25,08,22,21.70
2017,06,25,08,23,21.70
2017,06,25,08,24,21.80
2017,06,25,08,25,21.90
2017,06,25,08,26,22.00
2017,06,25,08,27,22.00
2017,06,25,08,28,22.10
2017,06,25,08,29,22.20
2017,06,25,08,30,22.30
2017,06,25,08,31,22.30
2017,06,25,08,32,22.30
2017,06,25,08,33,22.30
2017,06,25,08,34,22.30
2017,06,25,08,35,22.30
2017,06,25,08,36,22.30
2017,06,25,08,37,22.30
2017,06,25,08,38,22.30
2017,06,25,08,39,22.30
2017,06,25,08,40,22.30
2017,06,25,08,41,22.30
2017,06,25,08,42,22.30
2017,06,25,08,43,22.40
2017,06,25,08,44,22.40
2017,06,25,08,45,22.50
2017,06,25,08,46,22.50
2017,06,25,08,47,22.60
2017,06,25,08,48,22.60
2017,06,25,08,49,22.60
2017,06,25,08,50,22.70
2017,06,25,08,51,22.70
2017,06,25,08,52,22.70
2017,06,25,08,53,22.70
2017,06,25,08,54,22.80
2017,06,25,08,55,22.80
2017,06,25,08,56,22.90
2017,06,25,08,57,22.90
2017,06,25,08,58,22.90
2017,06,25,08,59,22.90
2017,06,25,09,00,22.90
2017,06,25,09,01,22.90
2017,06,25,09,02,22.90
2017,06,25,09,03,22.90
2017,06,25,09,04,22.90
2017,06,25,09,05,22.90
2017,06,25,09,06,22.90
2017,06,25,09,07,22.90
2017,06,25,09,08,23.00
2017,06,25,09,09,23.00
2017,06,25,09,10,23.00
2017,06,25,09,11,22.90
2017,06,25,09,12,22.90
2017,06,25,09,13,23.00
2017,06,25,09,14,23.00
2017,06,25,09,15,23.10
2017,06,25,09,16,23.10
2017,06,25,09,17,23.20
2017,06,25,09,18,23.20
2017,06,25,09,19,23.20
2017,06,25,09,20,23.20
2017,06,25,09,21,23.20
2017,06,25,09,22,23.20
2017,06,25,09,23,23.20
2017,06,25,09,24,23.30
2017,06,25,09,25,23.30
2017,06,25,09,26,23.30
2017,06,25,09,27,23.30
2017,06,25,09,28,23.30
2017,06,25,09,29,23.40
2017,06,25,09,30,23.40
2017,06,25,09,31,23.40
2017,06,25,09,32,23.40
2017,06,25,09,33,23.40
2017,06,25,09,34,23.50
2017,06,25,09,35,23.50
2017,06,25,09,36,23.60
2017,06,25,09,37,23.60
2017,06,25,09,38,23.60
2017,06,25,09,39,23.60
2017,06,25,09,40,23.60
2017,06,25,09,41,23.60
2017,06,25,09,42,23.60
2017,06,25,09,43,23.70
2017,06,25,09,44,23.70
2017,06,25,09,45,23.80
2017,06,25,09,46,23.80
2017,06,25,09,47,23.80
2017,06,25,09,48,23.80
2017,06,25,09,49,23.90
2017,06,25,09,50,24.00
2017,06,25,09,51,24.00
2017,06,25,09,52,24.10
2017,06,25,09,53,24.20
2017,06,25,09,54,24.20
2017,06,25,09,55,24.20
2017,06,25,09,56,24.20
2017,06,25,09,57,24.10
2017,06,25,09,58,24.10
2017,06,25,09,59,24.10
2017,06,25,10,00,24.10
2017,06,25,10,01,24.10
2017,06,25,10,02,24.10
2017,06,25,10,03,24.10
2017,06,25,10,04,24.10
2017,06,25,10,05,24.10
2017,06,25,10,06,24.10
2017,06,25,10,07,24.10
2017,06,25,10,08,24.20
2017,06,25,10,09,24.20
2017,06,25,10,10,24.20
2017,06,25,10,11,24.20
2017,06,25,10,12,24.20
2017,06,25,10,13,24.20
2017,06,25,10,14,24.20
2017,06,25,10,15,24.30
2017,06,25,10,16,24.40
2017,06,25,10,17,24.40
2017,06,25,10,18,24.40
2017,06,25,10,19,24.40
2017,06,25,10,20,24.40
2017,06,25,10,21,24.40
2017,06,25,10,22,24.40
2017,06,25,10,23,24.40
2017,06,25,10,24,24.50
2017,06,25,10,25,24.60
2017,06,25,10,26,24.70
2017,06,25,10,27,24.70
2017,06,25,10,28,24.70
2017,06,25,10,29,24.70
2017,06,25,10,30,24.70
2017,06,25,10,31,24.70
2017,06,25,10,32,24.80
2017,06,25,10,33,24.70
2017,06,25,10,34,24.70
2017,06,25,10,35,24.70
2017,06,25,10,36,24.70
2017,06,25,10,37,24.70
2017,06,25,10,38,24.80
2017,06,25,10,39,24.80
2017,06,25,10,40,24.90
2017,06,25,10,41,25.00
2017,06,25,10,42,25.10
2017,06,25,10,43,25.10
2017,06,25,10,44,25.20
2017,06,25,10,45,25.20
2017,06,25,10,46,25.20
2017,06,25,10,47,25.10
2017,06,25,10,48,25.10
2017,06,25,10,49,25.10
2017,06,25,10,50,25.10
2017,06,25,10,51,25.10
2017,06,25,10,52,25.20
2017,06,25,10,53,25.30
2017,06,25,10,54,25.30
2017,06,25,10,55,25.40
2017,06,25,10,56,25.30
2017,06,25,10,57,25.30
2017,06,25,10,58,25.20
2017,06,25,10,59,25.20
2017,06,25,11,00,25.20
2017,06,25,11,01,25.20
2017,06,25,11,02,25.20
2017,06,25,11,03,25.10
2017,06,25,11,04,25.00
2017,06,25,11,05,24.90
2017,06,25,11,06,24.90
2017,06,25,11,07,24.90
2017,06,25,11,08,25.00
2017,06,25,11,09,25.00
2017,06,25,11,10,25.00
2017,06,25,11,11,24.90
2017,06,25,11,12,24.90
2017,06,25,11,13,24.80
2017,06,25,11,14,24.80
2017,06,25,11,15,24.70
2017,06,25,11,16,24.60
2017,06,25,11,17,24.50
2017,06,25,11,18,24.50
2017,06,25,11,19,24.40
2017,06,25,11,20,24.40
2017,06,25,11,21,24.40
2017,06,25,11,22,24.40
2017,06,25,11,23,24.40
2017,06,25,11,24,24.40
2017,06,25,11,25,24.50
2017,06,25,11,26,24.50
2017,06,25,11,27,24.60
2017,06,25,11,28,24.60
2017,06,25,11,29,24.70
2017,06,25,11,30,24.70
2017,06,25,11,31,24.70
2017,06,25,11,32,24.70
2017,06,25,11,33,24.70
2017,06,25,11,34,24.60
2017,06,25,11,35,24.60
2017,06,25,11,36,24.60
2017,06,25,11,37,24.60
2017,06,25,11,38,24.60
2017,06,25,11,39,24.60
2017,06,25,11,40,24.60
2017,06,25,11,41,24.60
2017,06,25,11,42,24.60
2017,06,25,11,43,24.50
2017,06,25,11,44,24.50
2017,06,25,11,45,24.60
2017,06,25,11,46,24.70
2017,06,25,11,47,24.80
2017,06,25,11,48,24.90
2017,06,25,11,49,25.10
2017,06,25,11,50,25.20
2017,06,25,11,51,25.30
2017,06,25,11,52,25.30
2017,06,25,11,53,25.30
2017,06,25,11,54,25.20
2017,06,25,11,55,25.20
2017,06,25,11,56,25.30
2017,06,25,11,57,25.30
2017,06,25,11,58,25.30
2017,06,25,11,59,25.20
2017,06,25,12,00,25.20
2017,06,25,12,01,25.30
2017,06,25,12,02,25.30
2017,06,25,12,03,25.30
2017,06,25,12,04,25.30
2017,06,25,12,05,25.20
2017,06,25,12,06,25.20
2017,06,25,12,07,25.10
2017,06,25,12,08,25.00
2017,06,25,12,09,24.90
2017,06,25,12,10,24.90
2017,06,25,12,11,24.80
2017,06,25,12,12,24.70
2017,06,25,12,13,24.70
2017,06,25,12,14,24.70
2017,06,25,12,15,24.70
2017,06,25,12,16,24.70
2017,06,25,12,17,24.80
2017,06,25,12,18,24.90
2017,06,25,12,19,25.00
2017,06,25,12,20,25.20
2017,06,25,12,21,25.30
2017,06,25,12,22,25.40
2017,06,25,12,23,25.50
2017,06,25,12,24,25.60
2017,06,25,12,25,25.60
2017,06,25,12,26,25.50
2017,06,25,12,27,25.50
2017,06,25,12,28,25.50
2017,06,25,12,29,25.70
2017,06,25,12,30,25.80
2017,06,25,12,31,26.00
2017,06,25,12,32,26.10
2017,06,25,12,33,26.30
2017,06,25,12,34,26.30
2017,06,25,12,35,26.40
2017,06,25,12,36,26.40
2017,06,25,12,37,26.40
2017,06,25,12,38,26.30
2017,06,25,12,39,26.20
2017,06,25,12,40,26.30
2017,06,25,12,41,26.30
2017,06,25,12,42,26.40
2017,06,25,12,43,26.60
2017,06,25,12,44,26.70
2017,06,25,12,45,26.80
2017,06,25,12,46,26.90
2017,06,25,12,47,26.90
2017,06,25,12,48,26.90
2017,06,25,12,49,26.90
2017,06,25,12,50,26.90
2017,06,25,12,51,26.90
2017,06,25,12,52,26.90
2017,06,25,12,53,26.90
2017,06,25,12,54,26.80
2017,06,25,12,55,26.80
2017,06,25,12,56,26.90
2017,06,25,12,57,26.90
2017,06,25,12,58,26.90
2017,06,25,12,59,26.90
2017,06,25,13,00,26.90
2017,06,25,13,01,27.00
2017,06,25,13,02,27.10
2017,06,25,13,03,27.20
2017,06,25,13,04,27.30
2017,06,25,13,05,27.40
2017,06,25,13,06,27.50
2017,06,25,13,07,27.50
2017,06,25,13,08,27.60
2017,06,25,13,09,27.60
2017,06,25,13,10,27.50
2017,06,25,13,11,27.50
2017,06,25,13,12,27.40
2017,06,25,13,13,27.30
2017,06,25,13,14,27.20
2017,06,25,13,15,27.10
2017,06,25,13,16,26.90
2017,06,25,13,17,26.90
2017,06,25,13,18,26.80
2017,06,25,13,19,26.70
2017,06,25,13,20,26.60
2017,06,25,13,21,26.50
2017,06,25,13,22,26.40
2017,06,25,13,23,26.50
2017,06,25,13,24,26.50
2017,06,25,13,25,26.60
2017,06,25,13,26,26.60
2017,06,25,13,27,26.60
2017,06,25,13,28,26.60
2017,06,25,13,29,26.70
2017,06,25,13,30,26.80
2017,06,25,13,31,26.80
2017,06,25,13,32,26.90
2017,06,25,13,33,26.90
2017,06,25,13,34,26.90
2017,06,25,13,35,26.90
2017,06,25,13,36,26.90
2017,06,25,13,37,26.90
2017,06,25,13,38,26.90
2017,06,25,13,39,27.00
2017,06,25,13,40,27.10
2017,06,25,13,41,27.20
2017,06,25,13,42,27.20
2017,06,25,13,43,27.40
2017,06,25,13,44,27.50
2017,06,25,13,45,27.60
2017,06,25,13,46,27.70
2017,06,25,13,47,27.80
2017,06,25,13,48,27.70
2017,06,25,13,49,27.70
2017,06,25,13,50,27.80
2017,06,25,13,51,27.90
2017,06,25,13,52,27.90
2017,06,25,13,53,28.00
2017,06,25,13,54,28.00
2017,06,25,13,55,27.90
2017,06,25,13,56,27.90
2017,06,25,13,57,27.80
2017,06,25,13,58,27.80
2017,06,25,13,59,27.80
2017,06,25,14,00,27.90
2017,06,25,14,01,28.00
2017,06,25,14,02,28.10
2017,06,25,14,03,28.10
2017,06,25,14,04,28.10
2017,06,25,14,05,28.10
2017,06,25,14,06,28.10
2017,06,25,14,07,28.10
2017,06,25,14,08,28.20
2017,06,25,14,09,28.20
2017,06,25,14,10,28.20
2017,06,25,14,11,28.10
2017,06,25,14,12,28.10
2017,06,25,14,13,28.00
2017,06,25,14,14,28.00
2017,06,25,14,15,27.90
2017,06,25,14,16,27.80
2017,06,25,14,17,27.80
2017,06,25,14,18,27.80
2017,06,25,14,19,27.90
2017,06,25,14,20,28.00
2017,06,25,14,21,28.00
2017,06,25,14,22,28.10
2017,06,25,14,23,28.20
2017,06,25,14,24,28.30
2017,06,25,14,25,28.30
2017,06,25,14,26,28.30
2017,06,25,14,27,28.30
2017,06,25,14,28,28.40
2017,06,25,14,29,28.50
2017,06,25,14,30,28.60
2017,06,25,14,31,28.60
2017,06,25,14,32,28.60
2017,06,25,14,33,28.60
2017,06,25,14,34,28.50
2017,06,25,14,35,28.50
2017,06,25,14,36,28.50
2017,06,25,14,37,28.50
2017,06,25,14,38,28.50
2017,06,25,14,39,28.50
2017,06,25,14,40,28.60
2017,06,25,14,41,28.70
2017,06,25,14,42,28.70
2017,06,25,14,43,28.80
2017,06,25,14,44,28.80
2017,06,25,14,45,28.80
2017,06,25,14,46,28.80
2017,06,25,14,47,28.70
2017,06,25,14,48,28.70
2017,06,25,14,49,28.70
2017,06,25,14,50,28.70
2017,06,25,14,51,28.70
2017,06,25,14,52,28.70
2017,06,25,14,53,28.70
2017,06,25,14,54,28.80
2017,06,25,14,55,28.90
2017,06,25,14,56,29.00
2017,06,25,14,57,29.10
2017,06,25,14,58,29.20
2017,06,25,14,59,29.30
2017,06,25,15,00,29.30
2017,06,25,15,01,29.20
2017,06,25,15,02,29.10
2017,06,25,15,03,29.00
2017,06,25,15,04,29.00
2017,06,25,15,05,28.90
2017,06,25,15,06,28.80
2017,06,25,15,07,28.80
2017,06,25,15,08,28.70
2017,06,25,15,09,28.70
2017,06,25,15,10,28.70
2017,06,25,15,11,28.70
2017,06,25,15,12,28.80
2017,06,25,15,13,28.80
2017,06,25,15,14,28.80
2017,06,25,15,15,28.90
2017,06,25,15,16,28.90
2017,06,25,15,17,29.00
2017,06,25,15,18,29.00
2017,06,25,15,19,29.10
2017,06,25,15,20,29.10
2017,06,25,15,21,29.10
2017,06,25,15,22,29.10
2017,06,25,15,23,29.10
2017,06,25,15,24,29.00
2017,06,25,15,25,29.00
2017,06,25,15,26,29.00
2017,06,25,15,27,28.90
2017,06,25,15,28,29.00
2017,06,25,15,29,29.10
2017,06,25,15,30,29.10
2017,06,25,15,31,29.10
2017,06,25,15,32,29.10
2017,06,25,15,33,29.10
2017,06,25,15,34,29.10
2017,06,25,15,35,29.10
2017,06,25,15,36,29.10
2017,06,25,15,37,29.00
2017,06,25,15,38,28.80
2017,06,25,15,39,28.50
2017,06,25,15,40,28.20
2017,06,25,15,41,27.90
2017,06,25,15,42,27.50
2017,06,25,15,43,27.10
2017,06,25,15,44,26.60
2017,06,25,15,45,26.20
2017,06,25,15,46,25.90
2017,06,25,15,47,25.70
2017,06,25,15,48,25.60
2017,06,25,15,49,25.60
2017,06,25,15,50,25.60
2017,06,25,15,51,25.70
2017,06,25,15,52,25.80
2017,06,25,15,53,25.90
2017,06,25,15,54,26.00
2017,06,25,15,55,26.10
2017,06,25,15,56,26.20
2017,06,25,15,57,26.30
2017,06,25,15,58,26.40
2017,06,25,15,59,26.50
2017,06,25,16,00,26.60
2017,06,25,16,01,26.70
2017,06,25,16,02,26.70
2017,06,25,16,03,26.80
2017,06,25,16,04,26.80
2017,06,25,16,05,26.80
2017,06,25,16,06,26.80
2017,06,25,16,07,26.90
2017,06,25,16,08,26.90
2017,06,25,16,09,26.90
2017,06,25,16,10,26.90
2017,06,25,16,11,26.90
2017,06,25,16,12,27.00
2017,06,25,16,13,27.10
2017,06,25,16,14,27.10
2017,06,25,16,15,27.20
2017,06,25,16,16,27.20
2017,06,25,16,17,27.30
2017,06,25,16,18,27.40
2017,06,25,16,19,27.50
2017,06,25,16,20,27.60
2017,06,25,16,21,27.60
2017,06,25,16,22,27.70
2017,06,25,16,23,27.60
2017,06,25,16,24,27.50
2017,06,25,16,25,27.40
2017,06,25,16,26,27.30
2017,06,25,16,27,27.30
2017,06,25,16,28,27.20
2017,06,25,16,29,27.20
2017,06,25,16,30,27.20
2017,06,25,16,31,27.20
2017,06,25,16,32,27.30
2017,06,25,16,33,27.30
2017,06,25,16,34,27.30
2017,06,25,16,35,27.40
2017,06,25,16,36,27.40
2017,06,25,16,37,27.40
2017,06,25,16,38,27.50
2017,06,25,16,39,27.50
2017,06,25,16,40,27.60
2017,06,25,16,41,27.60
2017,06,25,16,42,27.60
2017,06,25,16,43,27.70
2017,06,25,16,44,27.70
2017,06,25,16,45,27.70
2017,06,25,16,46,27.70
2017,06,25,16,47,27.70
2017,06,25,16,48,27.80
2017,06,25,16,49,27.80
2017,06,25,16,50,27.90
2017,06,25,16,51,28.00
2017,06,25,16,52,28.10
2017,06,25,16,53,28.10
2017,06,25,16,54,28.20
2017,06,25,16,55,28.30
2017,06,25,16,56,28.30
2017,06,25,16,57,28.40
2017,06,25,16,58,28.40
2017,06,25,16,59,28.40
2017,06,25,17,00,28.40
2017,06,25,17,01,28.40
2017,06,25,17,02,28.40
2017,06,25,17,03,28.40
2017,06,25,17,04,28.40
2017,06,25,17,05,28.40
2017,06,25,17,06,28.30
2017,06,25,17,07,28.30
2017,06,25,17,08,28.20
2017,06,25,17,09,28.10
2017,06,25,17,10,28.10
2017,06,25,17,11,28.10
2017,06,25,17,12,28.00
2017,06,25,17,13,28.00
2017,06,25,17,14,28.10
2017,06,25,17,15,28.10
2017,06,25,17,16,28.20
2017,06,25,17,17,28.30
2017,06,25,17,18,28.30
2017,06,25,17,19,28.30